When you browse on this site, cookies collect data to enhance your experience and personalize the content and advertising you see.
Visit our Privacy Policy to learn more. By continuing to use the site, you agree to this use of cookies and data.
  • In Lithuania
  • List of Countries
  • For 7 days
  • Water Temperature
  • Satellite Maps
  • Weather Map
  • Weather Widgets
  • user-avatar
    Login

    Hourly Weather Isakovskie Vyselki

    Today, 20 March, Wednesday

    Time Temperature Precipitation Wind Pressure Humidity
    00:00 0°C° 0.1 mm 3 mps 752 mmHg 98%
    01:00 0°C° 0 mm 3 mps 752 mmHg 98%
    02:00 +1°C° 0 mm 2 mps 752 mmHg 97%
    03:00 +1°C° 0 mm 2 mps 751 mmHg 99%
    04:00 +1°C° 0.1 mm 2 mps 751 mmHg 99%
    05:00 +1°C° 0.1 mm 2 mps 751 mmHg 99%
    06:00 +1°C° 0.1 mm 2 mps 751 mmHg 99%
    07:00 +1°C° 0 mm 2 mps 751 mmHg 99%
    08:00 +1°C° 0 mm 2 mps 752 mmHg 99%
    09:00 +1°C° 0 mm 2 mps 752 mmHg 99%
    10:00 +1°C° 0 mm 2 mps 752 mmHg 99%
    11:00 +1°C° 0 mm 2 mps 752 mmHg 99%
    12:00 +1°C° 0 mm 2 mps 752 mmHg 99%
    13:00 +1°C° 0.1 mm 2 mps 752 mmHg 99%
    14:00 +1°C° 0.1 mm 2 mps 752 mmHg 99%
    15:00 +1°C° 0.1 mm 2 mps 752 mmHg 99%
    16:00 +1°C° 0.1 mm 2 mps 752 mmHg 99%
    17:00 +1°C° 0.1 mm 2 mps 752 mmHg 99%
    18:00 +1°C° 0.1 mm 2 mps 752 mmHg 99%
    19:00 -1°C° 0 mm 2 mps 752 mmHg 98%
    20:00 -1°C° 0 mm 2 mps 752 mmHg 98%
    21:00 -2°C° 0 mm 3 mps 752 mmHg 98%
    22:00 -2°C° 0 mm 2 mps 752 mmHg 97%
    23:00 -2°C° 0 mm 2 mps 752 mmHg 96%

    Tomorrow, 21 March, Thursday

    Time Temperature Precipitation Wind Pressure Humidity
    00:00 -2°C° 0 mm 2 mps 752 mmHg 96%
    01:00 -2°C° 0 mm 2 mps 752 mmHg 95%
    02:00 -3°C° 0 mm 2 mps 752 mmHg 94%
    03:00 -3°C° 0 mm 2 mps 752 mmHg 93%
    04:00 -3°C° 0 mm 2 mps 751 mmHg 92%
    05:00 -3°C° 0 mm 2 mps 751 mmHg 92%
    06:00 -4°C° 0 mm 2 mps 751 mmHg 91%
    07:00 -3°C° 0 mm 2 mps 751 mmHg 90%
    08:00 -2°C° 0 mm 3 mps 750 mmHg 88%
    09:00 -1°C° 0 mm 3 mps 750 mmHg 87%
    10:00 -1°C° 0 mm 3 mps 750 mmHg 88%
    11:00 -2°C° 0 mm 4 mps 749 mmHg 89%
    12:00 -1°C° 0 mm 4 mps 749 mmHg 91%
    13:00 -1°C° 0.2 mm 4 mps 749 mmHg 92%
    14:00 -1°C° 0.2 mm 4 mps 748 mmHg 93%
    15:00 -1°C° 0.2 mm 4 mps 748 mmHg 94%
    16:00 0°C° 0.2 mm 3 mps 748 mmHg 95%
    17:00 0°C° 0.2 mm 3 mps 748 mmHg 95%
    18:00 +1°C° 0.2 mm 2 mps 748 mmHg 95%
    19:00 0°C° 0 mm 3 mps 748 mmHg 95%
    20:00 0°C° 0 mm 3 mps 748 mmHg 94%
    21:00 0°C° 0 mm 3 mps 748 mmHg 93%
    22:00 -1°C° 0 mm 3 mps 749 mmHg 93%
    23:00 -2°C° 0 mm 4 mps 749 mmHg 92%

    Day after tomorrow, 22 March, Friday

    Time Temperature Precipitation Wind Pressure Humidity
    00:00 -3°C° 0 mm 4 mps 749 mmHg 92%
    01:00 -2°C° 0 mm 3 mps 749 mmHg 92%
    02:00 -2°C° 0 mm 3 mps 749 mmHg 92%
    03:00 -2°C° 0 mm 3 mps 749 mmHg 92%
    04:00 -4°C° 0 mm 3 mps 748 mmHg 92%
    05:00 -4°C° 0 mm 3 mps 748 mmHg 92%
    06:00 -3°C° 0 mm 2 mps 748 mmHg 92%
    07:00 -2°C° 0 mm 2 mps 748 mmHg 91%
    08:00 -2°C° 0 mm 2 mps 748 mmHg 90%
    09:00 -1°C° 0 mm 2 mps 748 mmHg 90%
    10:00 0°C° 0 mm 3 mps 747 mmHg 92%
    11:00 0°C° 0 mm 3 mps 747 mmHg 94%
    12:00 0°C° 0 mm 4 mps 746 mmHg 96%
    13:00 0°C° 0.2 mm 4 mps 745 mmHg 96%
    14:00 0°C° 0.2 mm 4 mps 744 mmHg 96%
    15:00 0°C° 0.2 mm 5 mps 743 mmHg 95%
    16:00 0°C° 0.4 mm 5 mps 742 mmHg 95%
    17:00 0°C° 0.4 mm 5 mps 741 mmHg 96%
    18:00 -1°C° 0.4 mm 6 mps 740 mmHg 96%
    19:00 -1°C° 0.3 mm 6 mps 740 mmHg 92%
    20:00 0°C° 0.3 mm 7 mps 740 mmHg 89%
    21:00 0°C° 0.3 mm 7 mps 740 mmHg 85%
    22:00 -1°C° 0 mm 7 mps 740 mmHg 83%
    23:00 -2°C° 0 mm 7 mps 740 mmHg 81%

    23 March, Saturday

    Time Temperature Precipitation Wind Pressure Humidity
    00:00 -2°C° 0 mm 7 mps 740 mmHg 80%
    01:00 -3°C° 0 mm 7 mps 740 mmHg 80%
    02:00 -4°C° 0 mm 8 mps 740 mmHg 80%
    03:00 -4°C° 0 mm 8 mps 740 mmHg 80%
    04:00 -4°C° 0 mm 8 mps 741 mmHg 80%
    05:00 -4°C° 0 mm 9 mps 741 mmHg 79%
    06:00 -4°C° 0 mm 9 mps 741 mmHg 79%
    07:00 -4°C° 0.1 mm 9 mps 742 mmHg 81%
    08:00 -3°C° 0.1 mm 9 mps 743 mmHg 82%
    09:00 -2°C° 0.1 mm 8 mps 744 mmHg 84%
    10:00 -2°C° 0 mm 7 mps 744 mmHg 84%
    11:00 -1°C° 0 mm 6 mps 745 mmHg 83%
    12:00 -1°C° 0 mm 6 mps 745 mmHg 83%
    13:00 0°C° 0 mm 5 mps 746 mmHg 82%
    14:00 0°C° 0 mm 4 mps 746 mmHg 81%
    15:00 0°C° 0 mm 4 mps 746 mmHg 80%
    16:00 +1°C° 0 mm 3 mps 746 mmHg 81%
    17:00 +1°C° 0 mm 3 mps 746 mmHg 82%
    18:00 +1°C° 0 mm 2 mps 746 mmHg 84%
    19:00 +1°C° 0 mm 2 mps 746 mmHg 85%
    20:00 0°C° 0 mm 3 mps 745 mmHg 86%
    21:00 -1°C° 0 mm 3 mps 745 mmHg 87%
    22:00 -2°C° 0 mm 4 mps 744 mmHg 86%
    23:00 -1°C° 0 mm 4 mps 744 mmHg 85%

    24 March, Sunday

    Time Temperature Precipitation Wind Pressure Humidity
    00:00 -1°C° 0 mm 5 mps 743 mmHg 84%
    01:00 -1°C° 0.4 mm 5 mps 742 mmHg 86%
    02:00 -2°C° 0.4 mm 6 mps 741 mmHg 88%
    03:00 -1°C° 0.4 mm 6 mps 740 mmHg 90%
    04:00 -1°C° 0.1 mm 6 mps 740 mmHg 91%
    05:00 +1°C° 0.1 mm 6 mps 739 mmHg 93%
    06:00 +1°C° 0.1 mm 5 mps 739 mmHg 94%
    07:00 +1°C° 0 mm 6 mps 739 mmHg 88%
    08:00 -1°C° 0 mm 7 mps 739 mmHg 82%
    09:00 -1°C° 0 mm 7 mps 739 mmHg 75%
    10:00 -1°C° 0.1 mm 8 mps 739 mmHg 70%
    11:00 0°C° 0.1 mm 8 mps 739 mmHg 64%
    12:00 +1°C° 0.1 mm 9 mps 739 mmHg 59%
    13:00 +1°C° 0.1 mm 9 mps 739 mmHg 59%
    14:00 +1°C° 0.1 mm 9 mps 739 mmHg 58%
    15:00 +1°C° 0.1 mm 9 mps 739 mmHg 58%
    16:00 0°C° 0 mm 9 mps 739 mmHg 61%
    17:00 -1°C° 0 mm 8 mps 739 mmHg 65%
    18:00 -1°C° 0 mm 7 mps 739 mmHg 68%
    19:00 -2°C° 0 mm 7 mps 739 mmHg 69%
    20:00 -2°C° 0 mm 6 mps 739 mmHg 70%
    21:00 -3°C° 0 mm 6 mps 739 mmHg 71%
    22:00 -3°C° 0 mm 6 mps 739 mmHg 71%
    23:00 -3°C° 0 mm 7 mps 739 mmHg 70%

    25 March, Monday

    Time Temperature Precipitation Wind Pressure Humidity
    00:00 -3°C° 0 mm 7 mps 739 mmHg 70%
    01:00 -3°C° 0 mm 7 mps 739 mmHg 70%
    02:00 -3°C° 0 mm 7 mps 740 mmHg 70%
    03:00 -5°C° 0 mm 8 mps 740 mmHg 70%
    04:00 -5°C° 0 mm 8 mps 740 mmHg 69%
    05:00 -5°C° 0 mm 8 mps 740 mmHg 69%
    06:00 -5°C° 0 mm 8 mps 740 mmHg 68%
    07:00 -4°C° 0 mm 7 mps 741 mmHg 64%
    08:00 -3°C° 0 mm 7 mps 741 mmHg 61%
    09:00 -3°C° 0 mm 7 mps 741 mmHg 58%
    10:00 -2°C° 0 mm 7 mps 741 mmHg 54%
    11:00 -1°C° 0 mm 6 mps 741 mmHg 50%
    12:00 +1°C° 0 mm 6 mps 741 mmHg 46%
    13:00 +2°C° 0 mm 6 mps 741 mmHg 45%
    14:00 +2°C° 0 mm 6 mps 740 mmHg 45%
    15:00 +3°C° 0 mm 6 mps 740 mmHg 44%
    16:00 +2°C° 0 mm 5 mps 739 mmHg 50%
    17:00 +1°C° 0 mm 4 mps 739 mmHg 55%
    18:00 +1°C° 0 mm 4 mps 739 mmHg 60%
    19:00 0°C° 0 mm 4 mps 738 mmHg 63%
    20:00 0°C° 0 mm 4 mps 738 mmHg 66%
    21:00 -1°C° 0 mm 4 mps 738 mmHg 69%
    22:00 -1°C° 0 mm 4 mps 738 mmHg 71%
    23:00 -1°C° 0 mm 4 mps 738 mmHg 72%
    Show more